| time (UTC) | temp F | wind direction | speed MPH | gust MPH | rain 1hr in | rain 24hr in | rain mn in | humidity % | barometer mb |
| 20260506025505 | 51 | 346 | 2.0 | 10.0 | 0.00 | 0.00 | 0.00 | 88 | 1008.4 |
| 20260506025007 | 51 | 349 | 2.0 | 10.0 | 0.00 | 0.00 | 0.00 | 87 | 1008.4 |
| 20260506024505 | 51 | 352 | 3.0 | 7.0 | 0.00 | 0.00 | 0.00 | 86 | 1008.4 |
| 20260506024005 | 51 | 345 | 3.0 | 8.0 | 0.00 | 0.00 | 0.00 | 86 | 1008.4 |
| 20260506023505 | 51 | 341 | 3.0 | 9.0 | 0.00 | 0.00 | 0.00 | 85 | 1008.5 |
| 20260506023006 | 51 | 336 | 4.0 | 9.0 | 0.00 | 0.00 | 0.00 | 85 | 1008.4 |
| 20260506022505 | 51 | 330 | 4.0 | 13.0 | 0.00 | 0.00 | 0.00 | 85 | 1008.4 |
| 20260506022006 | 51 | 329 | 4.0 | 13.0 | 0.00 | 0.00 | 0.00 | 86 | 1008.4 |
| 20260506021505 | 51 | 331 | 4.0 | 8.0 | 0.00 | 0.00 | 0.00 | 86 | 1008.4 |
| 20260506021002 | 51 | 331 | 4.0 | 9.0 | 0.00 | 0.00 | 0.00 | 86 | 1008.4 |
| 20260506020506 | 51 | 333 | 4.0 | 9.0 | 0.00 | 0.00 | 0.00 | 86 | 1008.4 |
| 20260506020005 | 51 | 331 | 5.0 | 12.0 | 0.00 | 0.00 | 0.00 | 86 | 1008.4 |
| 20260506015006 | 51 | 330 | 4.0 | 12.0 | 0.00 | 0.00 | 0.00 | 87 | 1008.4 |
| 20260506014505 | 50 | 327 | 4.0 | 12.0 | 0.00 | 0.00 | 0.00 | 87 | 1008.5 |
| 20260506013505 | 50 | 328 | 3.0 | 9.0 | 0.00 | 0.00 | 0.00 | 87 | 1008.4 |
| 20260506013006 | 50 | 331 | 3.0 | 8.0 | 0.00 | 0.00 | 0.00 | 87 | 1008.5 |
| 20260506012507 | 50 | 333 | 2.0 | 9.0 | 0.00 | 0.00 | 0.00 | 87 | 1008.4 |
| 20260506012005 | 50 | 331 | 2.0 | 9.0 | 0.00 | 0.00 | 0.00 | 87 | 1008.5 |
| 20260506011505 | 50 | 329 | 3.0 | 9.0 | 0.00 | 0.00 | 0.00 | 87 | 1008.6 |
| 20260506011006 | 50 | 331 | 3.0 | 9.0 | 0.00 | 0.00 | 0.00 | 87 | 1008.6 |
| 20260506010505 | 50 | 332 | 2.0 | 8.0 | 0.00 | 0.00 | 0.00 | 86 | 1008.7 |
| 20260506005506 | 50 | 329 | 3.0 | 8.0 | 0.00 | 0.00 | 0.00 | 86 | 1008.7 |
| 20260506005005 | 51 | 327 | 3.0 | 9.0 | 0.00 | 0.00 | 0.00 | 86 | 1008.8 |
| 20260506004505 | 51 | 324 | 2.0 | 9.0 | 0.00 | 0.00 | 0.00 | 86 | 1008.9 |
| 20260506004006 | 50 | 324 | 1.0 | 7.0 | 0.00 | 0.00 | 0.00 | 86 | 1008.9 |
| 20260506003505 | 50 | 332 | 1.0 | 9.0 | 0.00 | 0.00 | 0.00 | 86 | 1008.9 |
| 20260506002507 | 50 | 0 | 0.0 | 0.0 | 0.00 | 0.00 | 0.00 | 86 | 1009.0 |
| 20260506001505 | 50 | 330 | 0.0 | 4.0 | 0.00 | 0.00 | 0.00 | 86 | 1009.0 |
| 20260506001005 | 50 | 324 | 2.0 | 8.0 | 0.00 | 0.00 | 0.00 | 86 | 1009.0 |
| 20260506000505 | 50 | 324 | 2.0 | 8.0 | 0.00 | 0.00 | 0.00 | 85 | 1009.0 |
| 20260506000005 | 49 | 328 | 2.0 | 8.0 | 0.00 | 0.00 | 0.00 | 85 | 1009.1 |
| 20260505235007 | 49 | 316 | 0.0 | 6.0 | 0.00 | 0.00 | 0.00 | 84 | 1009.2 |
| 20260505234005 | 50 | 338 | 1.0 | 5.0 | 0.00 | 0.00 | 0.00 | 83 | 1009.2 |
| 20260505233505 | 50 | 333 | 1.0 | 5.0 | 0.00 | 0.00 | 0.00 | 83 | 1009.3 |
| 20260505233005 | 50 | 329 | 2.0 | 5.0 | 0.00 | 0.00 | 0.00 | 83 | 1009.3 |
| 20260505232506 | 50 | 329 | 3.0 | 8.0 | 0.00 | 0.00 | 0.00 | 82 | 1009.4 |
| 20260505232005 | 50 | 331 | 3.0 | 8.0 | 0.00 | 0.00 | 0.00 | 82 | 1009.4 |
| 20260505231506 | 50 | 335 | 2.0 | 8.0 | 0.00 | 0.00 | 0.00 | 82 | 1009.5 |
| 20260505231005 | 50 | 332 | 2.0 | 8.0 | 0.00 | 0.00 | 0.00 | 82 | 1009.5 |
| 20260505230506 | 50 | 332 | 2.0 | 6.0 | 0.00 | 0.00 | 0.00 | 82 | 1009.5 |
| 20260505230005 | 50 | 334 | 2.0 | 8.0 | 0.00 | 0.00 | 0.00 | 82 | 1009.6 |
| 20260505225507 | 50 | 337 | 2.0 | 8.0 | 0.00 | 0.00 | 0.00 | 82 | 1009.6 |
| 20260505225006 | 49 | 343 | 1.0 | 7.0 | 0.00 | 0.00 | 0.00 | 82 | 1009.6 |
| 20260505224505 | 49 | 337 | 2.0 | 6.0 | 0.00 | 0.00 | 0.00 | 82 | 1009.6 |
| 20260505224006 | 49 | 340 | 1.0 | 5.0 | 0.00 | 0.00 | 0.00 | 83 | 1009.6 |
| 20260505223505 | 49 | 335 | 1.0 | 4.0 | 0.00 | 0.00 | 0.00 | 83 | 1009.7 |
| 20260505223005 | 49 | 340 | 2.0 | 4.0 | 0.00 | 0.00 | 0.00 | 83 | 1009.7 |
| 20260505222505 | 49 | 356 | 2.0 | 5.0 | 0.00 | 0.00 | 0.00 | 82 | 1009.7 |
| 20260505222006 | 49 | 4 | 2.0 | 8.0 | 0.00 | 0.00 | 0.00 | 82 | 1009.8 |
| 20260505221505 | 49 | 356 | 2.0 | 8.0 | 0.00 | 0.00 | 0.00 | 82 | 1009.8 |
| 20260505221005 | 50 | 354 | 2.0 | 5.0 | 0.00 | 0.00 | 0.00 | 82 | 1009.8 |
| 20260505220505 | 50 | 354 | 2.0 | 5.0 | 0.00 | 0.00 | 0.00 | 82 | 1009.8 |
| 20260505220006 | 50 | 346 | 2.0 | 7.0 | 0.00 | 0.00 | 0.00 | 82 | 1009.8 |
| 20260505215506 | 50 | 344 | 3.0 | 8.0 | 0.00 | 0.00 | 0.00 | 82 | 1009.8 |
| 20260505214506 | 50 | 334 | 3.0 | 9.0 | 0.00 | 0.00 | 0.00 | 82 | 1009.8 |
| 20260505214006 | 50 | 333 | 3.0 | 9.0 | 0.00 | 0.00 | 0.00 | 83 | 1009.8 |
| 20260505213506 | 50 | 333 | 4.0 | 9.0 | 0.00 | 0.00 | 0.00 | 83 | 1009.8 |
| 20260505213006 | 50 | 330 | 4.0 | 10.0 | 0.00 | 0.00 | 0.00 | 83 | 1009.9 |
| 20260505212507 | 50 | 329 | 3.0 | 10.0 | 0.00 | 0.00 | 0.00 | 83 | 1009.9 |
| 20260505212006 | 50 | 332 | 1.0 | 7.0 | 0.00 | 0.00 | 0.00 | 83 | 1009.9 |
| 20260505211506 | 50 | 341 | 0.0 | 5.0 | 0.00 | 0.00 | 0.00 | 83 | 1010.0 |
| 20260505211005 | 51 | 359 | 0.0 | 5.0 | 0.00 | 0.00 | 0.00 | 82 | 1009.9 |
| 20260505210505 | 51 | 353 | 1.0 | 5.0 | 0.00 | 0.00 | 0.00 | 82 | 1010.0 |
| 20260505210005 | 51 | 353 | 3.0 | 8.0 | 0.00 | 0.00 | 0.00 | 81 | 1010.0 |
| 20260505205505 | 51 | 349 | 3.0 | 8.0 | 0.00 | 0.00 | 0.00 | 81 | 1010.0 |
| 20260505205005 | 51 | 348 | 3.0 | 8.0 | 0.00 | 0.00 | 0.00 | 81 | 1010.0 |
| 20260505204506 | 51 | 354 | 3.0 | 8.0 | 0.00 | 0.00 | 0.00 | 81 | 1010.0 |
| 20260505204005 | 51 | 350 | 3.0 | 9.0 | 0.00 | 0.00 | 0.00 | 80 | 1010.0 |
| 20260505203506 | 51 | 348 | 3.0 | 11.0 | 0.00 | 0.00 | 0.00 | 80 | 1010.1 |
| 20260505203005 | 51 | 347 | 3.0 | 11.0 | 0.00 | 0.00 | 0.00 | 80 | 1010.1 |
| 20260505202505 | 51 | 346 | 3.0 | 8.0 | 0.00 | 0.00 | 0.00 | 80 | 1010.2 |
| 20260505202005 | 52 | 347 | 1.0 | 8.0 | 0.00 | 0.00 | 0.00 | 79 | 1010.2 |
| 20260505201505 | 52 | 342 | 2.0 | 8.0 | 0.00 | 0.00 | 0.00 | 79 | 1010.2 |
| 20260505201005 | 52 | 351 | 4.0 | 8.0 | 0.00 | 0.00 | 0.00 | 79 | 1010.1 |
| 20260505200505 | 52 | 357 | 4.0 | 10.0 | 0.00 | 0.00 | 0.00 | 79 | 1010.1 |
| 20260505195505 | 52 | 357 | 4.0 | 9.0 | 0.00 | 0.00 | 0.00 | 79 | 1010.0 |
| 20260505195006 | 52 | 2 | 4.0 | 11.0 | 0.00 | 0.00 | 0.00 | 78 | 1010.0 |
| 20260505194506 | 52 | 1 | 5.0 | 11.0 | 0.00 | 0.00 | 0.00 | 78 | 1009.9 |
| 20260505194005 | 52 | 356 | 5.0 | 11.0 | 0.00 | 0.00 | 0.00 | 78 | 1009.9 |
| 20260505193506 | 52 | 356 | 4.0 | 11.0 | 0.00 | 0.00 | 0.00 | 79 | 1009.8 |
| 20260505193005 | 53 | 354 | 4.0 | 9.0 | 0.00 | 0.00 | 0.00 | 79 | 1009.8 |
| 20260505192505 | 53 | 356 | 4.0 | 9.0 | 0.00 | 0.00 | 0.00 | 79 | 1009.7 |
| 20260505192006 | 53 | 358 | 4.0 | 10.0 | 0.00 | 0.00 | 0.00 | 79 | 1009.7 |
| 20260505191506 | 53 | 1 | 4.0 | 10.0 | 0.00 | 0.00 | 0.00 | 79 | 1009.6 |
| 20260505191005 | 53 | 354 | 4.0 | 10.0 | 0.00 | 0.00 | 0.00 | 78 | 1009.6 |
| 20260505190505 | 53 | 351 | 4.0 | 10.0 | 0.00 | 0.00 | 0.00 | 78 | 1009.5 |
| 20260505190005 | 53 | 352 | 4.0 | 9.0 | 0.00 | 0.00 | 0.00 | 78 | 1009.5 |
| 20260505185505 | 53 | 351 | 4.0 | 9.0 | 0.00 | 0.00 | 0.00 | 77 | 1009.4 |
| 20260505185005 | 54 | 356 | 4.0 | 9.0 | 0.00 | 0.00 | 0.00 | 77 | 1009.3 |
| 20260505184505 | 54 | 359 | 5.0 | 10.0 | 0.00 | 0.00 | 0.00 | 76 | 1009.2 |
| 20260505184005 | 54 | 357 | 5.0 | 10.0 | 0.00 | 0.00 | 0.00 | 76 | 1009.2 |
| 20260505183505 | 54 | 356 | 5.0 | 11.0 | 0.00 | 0.00 | 0.00 | 76 | 1009.2 |
| 20260505183005 | 54 | 357 | 5.0 | 12.0 | 0.00 | 0.00 | 0.00 | 75 | 1009.2 |
| 20260505182505 | 55 | 354 | 5.0 | 12.0 | 0.00 | 0.00 | 0.00 | 75 | 1009.2 |
| 20260505182005 | 55 | 347 | 6.0 | 12.0 | 0.00 | 0.00 | 0.00 | 74 | 1009.1 |
| 20260505181505 | 55 | 351 | 5.0 | 12.0 | 0.00 | 0.00 | 0.00 | 74 | 1009.1 |
| 20260505181005 | 55 | 356 | 5.0 | 13.0 | 0.00 | 0.00 | 0.00 | 74 | 1009.1 |
| 20260505180505 | 55 | 350 | 6.0 | 13.0 | 0.00 | 0.00 | 0.00 | 73 | 1009.1 |
| 20260505180007 | 55 | 347 | 6.0 | 13.0 | 0.00 | 0.00 | 0.00 | 73 | 1009.1 |
| 20260505175520 | 56 | 350 | 6.0 | 15.0 | 0.00 | 0.00 | 0.00 | 72 | 1009.1 |
| 20260505175005 | 56 | 353 | 5.0 | 15.0 | 0.00 | 0.00 | 0.00 | 72 | 1009.1 |
| 20260505174505 | 56 | 351 | 6.0 | 12.0 | 0.00 | 0.00 | 0.00 | 72 | 1009.1 |
| 20260505174006 | 56 | 348 | 5.0 | 12.0 | 0.00 | 0.00 | 0.00 | 71 | 1009.1 |
| 20260505173505 | 56 | 352 | 5.0 | 10.0 | 0.00 | 0.00 | 0.00 | 73 | 1009.1 |
| 20260505173005 | 56 | 5 | 5.0 | 10.0 | 0.00 | 0.00 | 0.00 | 72 | 1009.1 |
| 20260505172005 | 57 | 355 | 5.0 | 14.0 | 0.00 | 0.00 | 0.00 | 72 | 1009.2 |
| 20260505171506 | 57 | 346 | 6.0 | 14.0 | 0.00 | 0.00 | 0.00 | 71 | 1009.2 |
| 20260505171007 | 57 | 346 | 6.0 | 14.0 | 0.00 | 0.00 | 0.00 | 71 | 1009.3 |
| 20260505170505 | 57 | 343 | 6.0 | 12.0 | 0.00 | 0.00 | 0.00 | 71 | 1009.3 |
| 20260505170005 | 57 | 344 | 6.0 | 12.0 | 0.00 | 0.00 | 0.00 | 71 | 1009.3 |
| 20260505165505 | 57 | 347 | 6.0 | 13.0 | 0.00 | 0.00 | 0.00 | 70 | 1009.2 |
| 20260505165006 | 58 | 343 | 6.0 | 13.0 | 0.00 | 0.00 | 0.00 | 70 | 1009.3 |
| 20260505164505 | 58 | 340 | 7.0 | 13.0 | 0.00 | 0.00 | 0.00 | 70 | 1009.4 |
| 20260505164005 | 58 | 342 | 7.0 | 13.0 | 0.00 | 0.00 | 0.00 | 71 | 1009.4 |
| 20260505163007 | 58 | 349 | 5.0 | 11.0 | 0.00 | 0.00 | 0.00 | 71 | 1009.4 |
| 20260505162506 | 58 | 344 | 5.0 | 12.0 | 0.00 | 0.00 | 0.00 | 71 | 1009.4 |
| 20260505162005 | 58 | 343 | 5.0 | 12.0 | 0.00 | 0.00 | 0.00 | 71 | 1009.4 |
| 20260505161505 | 58 | 342 | 6.0 | 12.0 | 0.00 | 0.00 | 0.00 | 72 | 1009.4 |
| 20260505161006 | 58 | 351 | 6.0 | 12.0 | 0.00 | 0.00 | 0.00 | 73 | 1009.5 |
| 20260505160505 | 58 | 354 | 5.0 | 10.0 | 0.00 | 0.00 | 0.00 | 72 | 1009.5 |
| 20260505153005 | 58 | 350 | 5.0 | 11.0 | 0.00 | 0.00 | 0.00 | 72 | 1009.5 |
| 20260505152505 | 58 | 349 | 6.0 | 12.0 | 0.00 | 0.00 | 0.00 | 72 | 1009.5 |
| 20260505152005 | 58 | 355 | 5.0 | 12.0 | 0.00 | 0.00 | 0.00 | 72 | 1009.5 |
| 20260505151505 | 59 | 345 | 5.0 | 11.0 | 0.00 | 0.00 | 0.00 | 72 | 1009.5 |
| 20260505140507 | 60 | 343 | 5.0 | 10.0 | 0.00 | 0.00 | 0.00 | 70 | 1009.8 |
| 20260505125007 | 61 | 22 | 6.0 | 12.0 | 0.00 | 0.00 | 0.00 | 75 | 1010.4 |
| 20260505124505 | 61 | 24 | 6.0 | 10.0 | 0.00 | 0.00 | 0.00 | 74 | 1010.3 |
| 20260505124006 | 61 | 26 | 6.0 | 10.0 | 0.00 | 0.00 | 0.00 | 75 | 1010.3 |
| 20260505123505 | 61 | 27 | 7.0 | 11.0 | 0.00 | 0.00 | 0.00 | 74 | 1010.4 |
| 20260505123005 | 60 | 22 | 7.0 | 11.0 | 0.00 | 0.00 | 0.00 | 73 | 1010.4 |
| 20260505122506 | 60 | 22 | 6.0 | 11.0 | 0.00 | 0.00 | 0.00 | 73 | 1010.4 |
| 20260505122005 | 61 | 25 | 7.0 | 13.0 | 0.00 | 0.00 | 0.00 | 75 | 1010.4 |
| 20260505121505 | 61 | 25 | 8.0 | 13.0 | 0.00 | 0.00 | 0.00 | 73 | 1010.5 |
| 20260505121006 | 61 | 24 | 9.0 | 13.0 | 0.00 | 0.00 | 0.00 | 74 | 1010.5 |
| 20260505120505 | 61 | 22 | 8.0 | 14.0 | 0.00 | 0.00 | 0.00 | 74 | 1010.3 |
| 20260505120006 | 61 | 24 | 8.0 | 14.0 | 0.00 | 0.00 | 0.00 | 76 | 1010.4 |
| 20260505115502 | 60 | 28 | 7.0 | 12.0 | 0.00 | 0.00 | 0.00 | 77 | 1010.5 |
| 20260505115005 | 60 | 22 | 5.0 | 9.0 | 0.00 | 0.00 | 0.00 | 77 | 1010.5 |
| 20260505114505 | 58 | 15 | 5.0 | 9.0 | 0.00 | 0.00 | 0.00 | 79 | 1010.6 |
| 20260505114005 | 58 | 17 | 5.0 | 9.0 | 0.00 | 0.00 | 0.00 | 80 | 1010.6 |
| 20260505113005 | 58 | 17 | 6.0 | 13.0 | 0.00 | 0.00 | 0.00 | 79 | 1010.6 |
| 20260505112505 | 58 | 17 | 5.0 | 9.0 | 0.00 | 0.00 | 0.00 | 79 | 1010.6 |
| 20260505112005 | 58 | 17 | 5.0 | 9.0 | 0.00 | 0.00 | 0.00 | 81 | 1010.6 |
| 20260505111505 | 57 | 22 | 5.0 | 9.0 | 0.00 | 0.00 | 0.00 | 83 | 1010.7 |
| 20260505111005 | 56 | 26 | 5.0 | 9.0 | 0.00 | 0.00 | 0.00 | 83 | 1010.7 |
| 20260505110505 | 56 | 23 | 5.0 | 10.0 | 0.00 | 0.00 | 0.00 | 84 | 1010.8 |
| 20260505102006 | 54 | 16 | 5.0 | 10.0 | 0.00 | 0.00 | 0.00 | 86 | 1011.2 |
| 20260505101506 | 54 | 17 | 5.0 | 11.0 | 0.00 | 0.00 | 0.00 | 86 | 1011.1 |
| 20260505101020 | 54 | 5 | 4.0 | 11.0 | 0.00 | 0.00 | 0.00 | 86 | 1011.2 |
| 20260505100005 | 54 | 356 | 4.0 | 10.0 | 0.00 | 0.00 | 0.00 | 85 | 1011.2 |
| 20260505095506 | 54 | 6 | 5.0 | 10.0 | 0.00 | 0.00 | 0.00 | 86 | 1011.2 |
| 20260505095006 | 54 | 15 | 4.0 | 10.0 | 0.00 | 0.00 | 0.00 | 87 | 1011.2 |
| 20260505094506 | 53 | 12 | 4.0 | 10.0 | 0.00 | 0.00 | 0.00 | 87 | 1011.3 |
| 20260505094007 | 53 | 14 | 4.0 | 9.0 | 0.00 | 0.00 | 0.00 | 87 | 1011.3 |
| 20260505093506 | 53 | 16 | 4.0 | 9.0 | 0.00 | 0.00 | 0.00 | 88 | 1011.3 |
| 20260505093006 | 53 | 18 | 4.0 | 9.0 | 0.00 | 0.00 | 0.00 | 87 | 1011.3 |
| 20260505092505 | 53 | 19 | 4.0 | 10.0 | 0.00 | 0.00 | 0.00 | 88 | 1011.4 |
| 20260505092005 | 53 | 14 | 4.0 | 10.0 | 0.00 | 0.00 | 0.00 | 88 | 1011.4 |
| 20260505091506 | 53 | 14 | 4.0 | 9.0 | 0.00 | 0.00 | 0.00 | 87 | 1011.5 |
| 20260505091005 | 53 | 18 | 4.0 | 9.0 | 0.00 | 0.00 | 0.00 | 88 | 1011.5 |
| 20260505090506 | 53 | 14 | 4.0 | 11.0 | 0.00 | 0.00 | 0.00 | 88 | 1011.4 |
| 20260505090005 | 53 | 11 | 4.0 | 11.0 | 0.00 | 0.00 | 0.00 | 88 | 1011.4 |
| 20260505085505 | 53 | 19 | 5.0 | 11.0 | 0.00 | 0.00 | 0.00 | 88 | 1011.4 |
| 20260505085006 | 53 | 22 | 7.0 | 12.0 | 0.00 | 0.00 | 0.00 | 88 | 1011.3 |
| 20260505084507 | 53 | 20 | 7.0 | 12.0 | 0.00 | 0.00 | 0.00 | 88 | 1011.4 |
| 20260505084005 | 53 | 23 | 8.0 | 13.0 | 0.00 | 0.00 | 0.00 | 88 | 1011.2 |
| 20260505083506 | 53 | 22 | 7.0 | 13.0 | 0.00 | 0.00 | 0.00 | 88 | 1011.2 |
| 20260505083005 | 52 | 20 | 6.0 | 13.0 | 0.00 | 0.00 | 0.00 | 89 | 1011.2 |
| 20260505082506 | 52 | 20 | 7.0 | 13.0 | 0.00 | 0.00 | 0.00 | 89 | 1011.2 |
| 20260505082005 | 52 | 19 | 7.0 | 13.0 | 0.00 | 0.00 | 0.00 | 89 | 1011.3 |
| 20260505081506 | 52 | 17 | 7.0 | 13.0 | 0.00 | 0.00 | 0.00 | 89 | 1011.2 |
| 20260505081005 | 52 | 16 | 6.0 | 12.0 | 0.00 | 0.00 | 0.00 | 89 | 1011.2 |
| 20260505080506 | 52 | 16 | 6.0 | 14.0 | 0.00 | 0.00 | 0.00 | 90 | 1011.2 |
| 20260505075505 | 52 | 18 | 7.0 | 15.0 | 0.00 | 0.00 | 0.00 | 90 | 1011.2 |
| 20260505075006 | 52 | 21 | 6.0 | 12.0 | 0.00 | 0.00 | 0.00 | 91 | 1011.2 |
| 20260505074505 | 52 | 20 | 7.0 | 12.0 | 0.00 | 0.00 | 0.00 | 91 | 1011.3 |
| 20260505074006 | 51 | 18 | 6.0 | 12.0 | 0.00 | 0.00 | 0.00 | 91 | 1011.2 |
| 20260505073506 | 51 | 15 | 6.0 | 13.0 | 0.00 | 0.00 | 0.00 | 91 | 1011.2 |
| 20260505073005 | 51 | 15 | 6.0 | 13.0 | 0.00 | 0.00 | 0.00 | 91 | 1011.2 |
| 20260505072506 | 51 | 16 | 6.0 | 13.0 | 0.00 | 0.00 | 0.00 | 91 | 1011.3 |
| 20260505072006 | 51 | 15 | 5.0 | 11.0 | 0.00 | 0.00 | 0.00 | 91 | 1011.3 |
| 20260505071506 | 51 | 14 | 5.0 | 11.0 | 0.00 | 0.00 | 0.00 | 92 | 1011.3 |
| 20260505070506 | 51 | 9 | 6.0 | 11.0 | 0.00 | 0.00 | 0.00 | 91 | 1011.3 |
| 20260505070005 | 51 | 14 | 5.0 | 10.0 | 0.00 | 0.00 | 0.00 | 91 | 1011.3 |
| 20260505065507 | 51 | 15 | 4.0 | 10.0 | 0.00 | 0.00 | 0.00 | 92 | 1011.4 |
| 20260505065005 | 51 | 16 | 5.0 | 11.0 | 0.00 | 0.00 | 0.00 | 92 | 1011.5 |
| 20260505064505 | 51 | 20 | 6.0 | 11.0 | 0.00 | 0.00 | 0.00 | 92 | 1011.4 |
| 20260505063506 | 51 | 14 | 5.0 | 11.0 | 0.00 | 0.00 | 0.00 | 92 | 1011.5 |
| 20260505063006 | 51 | 13 | 4.0 | 10.0 | 0.00 | 0.00 | 0.00 | 92 | 1011.5 |
| 20260505062506 | 51 | 15 | 5.0 | 10.0 | 0.00 | 0.00 | 0.00 | 92 | 1011.6 |
| 20260505062006 | 51 | 16 | 5.0 | 10.0 | 0.00 | 0.00 | 0.00 | 92 | 1011.6 |
| 20260505061006 | 51 | 17 | 4.0 | 9.0 | 0.00 | 0.00 | 0.00 | 92 | 1011.6 |
| 20260505060505 | 51 | 18 | 5.0 | 9.0 | 0.00 | 0.00 | 0.00 | 92 | 1011.8 |
| 20260505060007 | 51 | 16 | 4.0 | 10.0 | 0.00 | 0.00 | 0.00 | 92 | 1011.8 |
| 20260505055505 | 51 | 13 | 5.0 | 10.0 | 0.00 | 0.00 | 0.00 | 92 | 1011.8 |
| 20260505055006 | 51 | 13 | 5.0 | 10.0 | 0.00 | 0.00 | 0.00 | 92 | 1011.7 |
| 20260505054505 | 51 | 16 | 4.0 | 9.0 | 0.00 | 0.00 | 0.00 | 92 | 1011.7 |
| 20260505053006 | 51 | 20 | 6.0 | 10.0 | 0.00 | 0.00 | 0.00 | 92 | 1011.7 |
| 20260505052505 | 51 | 22 | 5.0 | 10.0 | 0.00 | 0.00 | 0.00 | 92 | 1011.6 |
| 20260505052006 | 51 | 24 | 5.0 | 10.0 | 0.00 | 0.00 | 0.00 | 92 | 1011.5 |
| 20260505051505 | 51 | 18 | 5.0 | 11.0 | 0.00 | 0.00 | 0.00 | 92 | 1011.5 |
| 20260505051006 | 51 | 11 | 4.0 | 11.0 | 0.00 | 0.00 | 0.00 | 92 | 1011.4 |
| 20260505050505 | 51 | 8 | 3.0 | 9.0 | 0.00 | 0.00 | 0.00 | 92 | 1011.3 |
| 20260505041505 | 51 | 4 | 4.0 | 10.0 | 0.00 | 0.00 | 0.00 | 92 | 1011.2 |
| 20260505041007 | 51 | 7 | 4.0 | 10.0 | 0.00 | 0.00 | 0.00 | 92 | 1011.2 |
| 20260505040506 | 51 | 2 | 4.0 | 10.0 | 0.00 | 0.00 | 0.00 | 91 | 1011.2 |
| 20260505040006 | 51 | 358 | 3.0 | 8.0 | 0.00 | 0.00 | 0.00 | 91 | 1011.3 |
| 20260505035506 | 51 | 3 | 4.0 | 9.0 | 0.00 | 0.00 | 0.00 | 91 | 1011.3 |
| 20260505035005 | 51 | 1 | 3.0 | 9.0 | 0.00 | 0.00 | 0.00 | 91 | 1011.3 |
| 20260505033005 | 52 | 359 | 4.0 | 9.0 | 0.00 | 0.00 | 0.00 | 91 | 1011.4 |
| 20260505032505 | 52 | 347 | 4.0 | 10.0 | 0.00 | 0.00 | 0.00 | 90 | 1011.5 |
| 20260505032006 | 52 | 341 | 4.0 | 10.0 | 0.00 | 0.00 | 0.00 | 90 | 1011.5 |
| 20260505031505 | 52 | 341 | 4.0 | 12.0 | 0.00 | 0.00 | 0.00 | 90 | 1011.5 |
| 20260505030506 | 52 | 348 | 4.0 | 9.0 | 0.00 | 0.00 | 0.00 | 90 | 1011.5 |
| 20260505030006 | 52 | 355 | 3.0 | 8.0 | 0.00 | 0.00 | 0.00 | 90 | 1011.5 |